Change the Weather History Date:

Monday, July 7, 2014

  Actual Average Record
Temperature  
Mean Temperature 80 °F 78 °F  
Max Temperature 90 °F 89 °F 106 °F (1936)
Min Temperature 70 °F 68 °F 52 °F (1972)
Degree Days  
Heating Degree Days 0 0  
Month to date heating degree days 0 0  
Since 1 June heating degree days 0 6  
Since 1 July heating degree days 0 0  
Cooling Degree Days 15 13  
Month to date cooling degree days 64 91  
Year to date cooling degree days 637 524  
Since 1 June cooling degree days 426 389  
Growing Degree Days 30 (Base 50)    
Moisture  
Dew Point 67 °F    
Average Humidity 70    
Maximum Humidity 87    
Minimum Humidity 52    
Precipitation  
Precipitation 0.02 in 0.13 in 2.70 in (2011)
Month to date precipitation 2.24 0.91  
Year to date precipitation 27.60 24.93  
Snow  
Snow 0.00 in 0.00 in - ()
Month to date snowfall 0.0 0.0  
Since 1 June snowfall 0.0 0.0  
Since 1 July snowfall 0.0 0.0  
Snow Depth 0.00 in    
Sea Level Pressure  
Sea Level Pressure 29.88 in    
Wind  
Wind Speed 13 mph (SW)    
Max Wind Speed 41 mph    
Max Gust Speed 57 mph    
Visibility 10 miles    
Events Rain , Thunderstorm    
T = Trace of Precipitation, MM = Missing Value Source: NWS Daily Summary

Daily Weather History Graph

Daily Weather History Graph

Search for Another Location

Airport or City:

Trip Planner

Search our weather history database for the weather conditions in past years. The results will help you decide how hot, cold, wet, or windy it might be!

Date:

Astronomy

Jul. 07, 2014 Rise Set
Actual Time 5:34 AM CDT 8:15 PM CDT
Civil Twilight 5:03 AM CDT 8:46 PM CDT
Nautical Twilight 4:24 AM CDT 9:25 PM CDT
Astronomical Twilight 3:40 AM CDT 10:08 PM CDT
Moon 3:20 PM CDT (7/7) 1:24 AM CDT (7/7)
Length of Visible Light 15h 43m
Length of Day
14h 41m
Waxing Gibbous, 72% of the Moon is Illuminated
Jul 7
Waxing Gibbous
Jul 12
Full
Jul 18
Last Quarter
Jul 26
New
Aug 3
First Quarter

Hourly Weather History & Observations

Time (CDT) Temp. Heat Index Dew Point Humidity Pressure Visibility Wind Dir Wind Speed Gust Speed Precip Events Conditions
12:54 AM 73.0 °F - 62.1 °F 68% 29.94 in 10.0 mi SSW 11.5 mph - N/A   Clear
1:54 AM 73.0 °F - 62.1 °F 68% 29.93 in 10.0 mi SSW 11.5 mph - N/A   Clear
2:54 AM 72.0 °F - 62.1 °F 71% 29.91 in 10.0 mi SSW 8.1 mph - N/A   Clear
3:54 AM 71.1 °F - 61.0 °F 70% 29.90 in 10.0 mi SSW 9.2 mph - N/A   Clear
4:54 AM 70.0 °F - 61.0 °F 73% 29.90 in 10.0 mi SSW 10.4 mph - N/A   Clear
5:54 AM 70.0 °F - 61.0 °F 73% 29.90 in 10.0 mi SSW 10.4 mph - N/A   Clear
6:54 AM 72.0 °F - 61.0 °F 68% 29.91 in 10.0 mi SSW 9.2 mph - N/A   Partly Cloudy
7:54 AM 75.0 °F - 63.0 °F 66% 29.91 in 10.0 mi SSW 17.3 mph - N/A   Clear
8:54 AM 78.1 °F - 64.9 °F 64% 29.91 in 10.0 mi SW 16.1 mph - N/A   Clear
9:54 AM 81.0 °F 83.3 °F 66.9 °F 62% 29.90 in 10.0 mi SW 16.1 mph - N/A   Scattered Clouds
10:54 AM 82.0 °F 85.5 °F 69.1 °F 65% 29.88 in 10.0 mi SW 17.3 mph 25.3 mph N/A   Clear
11:54 AM 84.9 °F 89.4 °F 70.0 °F 61% 29.86 in 10.0 mi SSW 18.4 mph - N/A   Clear
12:54 PM 88.0 °F 93.8 °F 71.1 °F 57% 29.85 in 9.0 mi SW 16.1 mph - N/A   Scattered Clouds
1:54 PM 89.1 °F 94.1 °F 70.0 °F 53% 29.83 in 9.0 mi SW 23.0 mph 27.6 mph N/A   Mostly Cloudy
2:54 PM 89.1 °F 95.0 °F 71.1 °F 55% 29.79 in 8.0 mi SSW 18.4 mph 27.6 mph N/A   Mostly Cloudy
3:54 PM 87.1 °F 92.8 °F 71.1 °F 59% 29.86 in 10.0 mi WSW 16.1 mph - N/A   Overcast
4:54 PM 86.0 °F 92.2 °F 72.0 °F 63% 29.85 in 10.0 mi WSW 16.1 mph - N/A   Overcast
5:03 PM 86.0 °F 93.0 °F 73.0 °F 65% 29.90 in 9.0 mi WSW 19.6 mph 27.6 mph N/A Thunderstorm Thunderstorm
5:11 PM 78.1 °F - 64.0 °F 62% 29.90 in 4.0 mi North - - 0.01 in Rain , Thunderstorm Light Thunderstorms and Rain
5:54 PM 71.1 °F - 66.0 °F 84% 29.90 in 10.0 mi West 5.8 mph - 0.01 in Rain , Thunderstorm Light Thunderstorms and Rain
6:01 PM 71.1 °F - 66.0 °F 84% 29.91 in 10.0 mi Calm Calm - 0.00 in Rain , Thunderstorm Light Rain
6:11 PM 71.1 °F - 66.0 °F 84% 29.92 in 8.0 mi Calm Calm - 0.01 in Rain Light Rain
6:23 PM 72.0 °F - 66.9 °F 84% 29.91 in 9.0 mi North - - 0.01 in Rain , Thunderstorm Light Rain
6:50 PM - - - N/A% 29.88 in - North - - 0.01 in   Unknown
6:54 PM - - - N/A% 29.87 in - North - - 0.01 in Thunderstorm Unknown
7:16 PM - - - N/A% 29.85 in - North - - N/A   Unknown
7:54 PM 75.0 °F - 69.1 °F 82% 29.79 in 10.0 mi SSW 15.0 mph - N/A   Unknown
8:03 PM 73.0 °F - 69.1 °F 87% 29.86 in 10.0 mi NW 18.4 mph 33.4 mph N/A   Partly Cloudy
8:54 PM 75.0 °F - 70.0 °F 84% 29.83 in 10.0 mi SW 11.5 mph - N/A   Clear
9:54 PM 75.9 °F - 71.1 °F 85% 29.87 in 10.0 mi SW 10.4 mph - N/A   Clear
10:54 PM 75.0 °F - 70.0 °F 84% 29.84 in 10.0 mi South 10.4 mph - N/A   Clear
11:54 PM 75.0 °F - 70.0 °F 84% 29.82 in 10.0 mi South 6.9 mph - N/A   Clear